sat.trackr.live / text

‹ back to catalog

STARLINK-3831

NORAD 52332 · 2022-045B

PAYLOAD ACTIVE UNKNOWN

§ Identity

Operator
Country
US
Launch date
2022-04-29
Launch site
AFETR
Launch vehicle
Mass (kg)
RCS (m²)

Purposes: comms

External: N2YO · Heavens-Above · Gunter

§ Orbital elements

Epoch: 2026-09-20T01:02:16.387872Z

Period
93.90 min
Inclination
53.1595°
Eccentricity
0.0000892
Mean motion
15.33582611 rev/d
Perigee alt
464.5 km
Apogee alt
465.7 km
Semi-major
6,843.3 km
B*
4.0833e-4
RAAN
53.5639°
Arg perigee
77.0963°
Mean anomaly
283.0138°
Rev number
24,501

§ Raw data

STARLINK-38311 52332U 22045B   26263.04324523  .00013094  00000+0  40833-3 0  99972 52332  53.1595  53.5639 0000892  77.0963 283.0138 15.33582611245019

JSON: /api/v1/satellites/52332 · /tle

For live sub-satellite position, see the globe view (requires WebGL).

§ Visibility from observer

Set your observer location to see the next 7 days of passes ≥ 10°. The values pass through the URL so the page stays shareable.

No JS? Fill the form by hand. The geolocation button needs JavaScript.